Weather History for FBFT - October, 2012

Change the Weather History Date:

Monday, October 1, 2012

  Actual Average Record
Temperature  
Mean Temperature 74 °F -  
Max Temperature 86 °F 87 °F 102 °F (2008)
Min Temperature 63 °F 62 °F 50 °F (1996)
Cooling Degree Days 10    
Growing Degree Days 24 (Base 50)    
Moisture  
Dew Point 46 °F    
Average Humidity 35    
Maximum Humidity 49    
Minimum Humidity 17    
Precipitation  
Precipitation 0.00 in - - ()
Sea Level Pressure  
Sea Level Pressure 30.20 in    
Wind  
Wind Speed 13 mph ()    
Max Wind Speed 22 mph    
Max Gust Speed -    
Visibility 6.0 miles    
Events      
Averages and records for this station are not official NWS values.
T = Trace of Precipitation, MM = Missing Value Source: Averaged Metar Reports

Daily Weather History Graph

Daily Weather History Graph

Search for Another Location

Airport or City:

Trip Planner

Search our weather history database for the weather conditions in past years. The results will help you decide how hot, cold, wet, or windy it might be!

Date:

Astronomy

Oct. 01, 2012 Rise Set
Actual Time 5:50 AM CAT 6:08 PM CAT
Civil Twilight 5:28 AM CAT 6:30 PM CAT
Nautical Twilight 5:02 AM CAT 6:56 PM CAT
Astronomical Twilight 4:36 AM CAT 7:22 PM CAT
Moon 7:23 PM CAT (10/1) 6:21 AM CAT (10/1)
Length of Visible Light 13h 02m
Length of Day
12h 17m
Full, 98% of the Moon is Illuminated
Oct 1
Full
Oct 8
Last Quarter
Oct 15
New
Oct 22
First Quarter
Oct 29
Full

Hourly Weather History & Observations

Time (CAT) Temp. Dew Point Humidity Pressure Visibility Wind Dir Wind Speed Gust Speed Precip Events Conditions
12:00 AM 69.8 °F 44.6 °F 40% 30.21 in - ESE 11.5 mph - N/A   Clear
2:00 AM 67 °F 44 °F 31%  in 6 mi East 13.8 mph - -  
2:00 AM 68.0 °F 21.2 °F 17% 30.18 in - East 13.8 mph - N/A   Clear
3:00 AM 66.2 °F 44.6 °F 46% 30.18 in - ESE 13.8 mph - N/A   Clear
4:00 AM 64.4 °F 44.6 °F 49% 30.18 in - ESE 15.0 mph - N/A   Clear
5:00 AM 64.4 °F 42.8 °F 45% 30.21 in - ESE 13.8 mph - N/A   Clear
6:00 AM 62.6 °F 42.8 °F 48% 30.24 in - East 12.7 mph - N/A   Clear
7:00 AM 64.4 °F 44.6 °F 49% 30.27 in - East 15.0 mph - N/A   Clear
8:00 AM 68 °F 46 °F 33%  in 6 mi East 16.1 mph - -  
8:00 AM 68.0 °F 46.4 °F 46% 30.27 in - East 16.1 mph - N/A   Clear
9:00 AM 71.6 °F 48.2 °F 43% 30.27 in - East 21.9 mph - N/A   Clear
10:00 AM 75.2 °F 48.2 °F 38% 30.27 in - East 19.6 mph - N/A   Clear
11:00 AM 78.8 °F 50.0 °F 36% 30.24 in - East 18.4 mph - N/A   Clear
12:00 PM 80.6 °F 51.8 °F 37% 30.21 in - ESE 17.3 mph - N/A   Clear
1:00 PM 84.2 °F 50.0 °F 30% 30.18 in - ESE 16.1 mph - N/A   Clear
2:00 PM 86 °F 50 °F 19%  in 6 mi ESE 12.7 mph - -  
2:00 PM 86.0 °F 50.0 °F 29% 30.15 in - ESE 12.7 mph - N/A   Clear
3:00 PM 86.0 °F 51.8 °F 31% 30.15 in - East 13.8 mph - N/A   Clear
4:00 PM 86.0 °F 50.0 °F 29% 30.12 in - ESE 13.8 mph - N/A   Clear
5:00 PM 84.2 °F 48.2 °F 29% 30.12 in - East 13.8 mph - N/A   Clear
6:00 PM 82.4 °F 46.4 °F 28% 30.15 in - ESE 16.1 mph - N/A   Clear
7:00 PM 78.8 °F 46.4 °F 32% 30.18 in - ESE 12.7 mph - N/A   Clear
8:00 PM 77 °F 46 °F 22%  in 6 mi ESE 11.5 mph - -  
8:00 PM 77.0 °F 46.4 °F 34% 30.18 in - ESE 11.5 mph - N/A   Clear
9:00 PM 75.2 °F 46.4 °F 36% 30.21 in - ESE 10.4 mph - N/A   Clear
10:00 PM 73.4 °F 46.4 °F 38% 30.21 in - ESE 12.7 mph - N/A   Clear
11:00 PM 73.4 °F 44.6 °F 36% 30.21 in - ESE 15.0 mph - N/A   Clear